Time,TemperatureF,DewpointF,PressureIn,WindDirection,WindDirectionDegrees,WindSpeedMPH,WindSpeedGustMPH,Humidity,HourlyPrecipIn,Conditions,Clouds,dailyrainin,SoftwareType,DateUTC
2013-06-01 00:02:00,69.4,68.5,29.84,SSW,211,1.0,4.0,97,0.01,,,0.49,meteohub,2013-06-01 04:02:00,
2013-06-01 00:07:00,69.4,68.5,29.84,SW,215,0.0,2.0,97,0.01,,,0.00,meteohub,2013-06-01 04:07:00,
2013-06-01 00:12:00,69.3,68.4,29.85,SSW,203,0.0,2.0,97,0.01,,,0.00,meteohub,2013-06-01 04:12:00,
2013-06-01 00:17:00,69.3,68.4,29.84,SSW,212,0.0,2.0,97,0.01,,,0.00,meteohub,2013-06-01 04:17:00,
2013-06-01 00:22:00,69.3,68.4,29.84,SSW,212,0.0,2.0,97,0.01,,,0.00,meteohub,2013-06-01 04:22:00,
2013-06-01 00:27:00,69.1,68.2,29.84,WSW,256,0.0,2.0,97,0.01,,,0.00,meteohub,2013-06-01 04:27:00,
2013-06-01 00:32:00,68.9,68.0,29.84,SSW,212,2.0,2.0,97,0.01,,,0.00,meteohub,2013-06-01 04:32:00,
2013-06-01 00:37:00,68.7,67.8,29.84,SW,215,1.0,2.0,97,0.01,,,0.00,meteohub,2013-06-01 04:37:00,
2013-06-01 00:42:00,68.7,67.8,29.83,SE,141,0.0,2.0,97,0.01,,,0.00,meteohub,2013-06-01 04:42:00,
2013-06-01 00:47:00,68.9,68.0,29.84,SW,217,2.0,2.0,97,0.01,,,0.00,meteohub,2013-06-01 04:47:00,
2013-06-01 00:52:00,68.9,68.0,29.84,SW,215,0.0,4.0,97,0.00,,,0.00,meteohub,2013-06-01 04:52:00,
2013-06-01 00:57:00,68.9,68.0,29.83,SE,126,0.0,4.0,97,0.00,,,0.00,meteohub,2013-06-01 04:57:00,
2013-06-01 01:02:00,69.3,68.7,29.83,ENE,75,0.0,4.0,98,0.00,,,0.00,meteohub,2013-06-01 05:02:00,
2013-06-01 01:07:00,69.1,68.2,29.83,SW,228,0.0,2.0,97,0.01,,,0.01,meteohub,2013-06-01 05:07:00,
2013-06-01 01:12:00,69.1,68.2,29.84,WSW,240,0.0,2.0,97,0.01,,,0.01,meteohub,2013-06-01 05:12:00,
2013-06-01 01:17:00,68.7,67.8,29.83,SW,236,0.0,2.0,97,0.01,,,0.01,meteohub,2013-06-01 05:17:00,
2013-06-01 01:22:00,69.1,68.2,29.83,ENE,67,2.0,2.0,97,0.01,,,0.01,meteohub,2013-06-01 05:22:00,
2013-06-01 01:27:00,69.1,68.2,29.83,East,91,1.0,4.0,97,0.01,,,0.01,meteohub,2013-06-01 05:27:00,
2013-06-01 01:32:00,69.3,68.4,29.82,South,169,1.0,4.0,97,0.01,,,0.01,meteohub,2013-06-01 05:32:00,
2013-06-01 01:37:00,69.1,68.2,29.82,SW,235,0.0,4.0,97,0.01,,,0.01,meteohub,2013-06-01 05:37:00,
2013-06-01 01:42:00,68.9,68.0,29.83,SW,228,1.0,4.0,97,0.01,,,0.01,meteohub,2013-06-01 05:42:00,
2013-06-01 01:47:00,68.9,68.0,29.82,SSW,193,0.0,3.0,97,0.01,,,0.01,meteohub,2013-06-01 05:47:00,
2013-06-01 01:52:00,68.7,67.8,29.82,SSE,152,0.0,2.0,97,0.01,,,0.01,meteohub,2013-06-01 05:52:00,
2013-06-01 01:57:00,68.7,67.8,29.82,SW,214,0.0,2.0,97,0.01,,,0.01,meteohub,2013-06-01 05:57:00,
2013-06-01 02:02:00,68.7,67.8,29.82,South,181,0.0,2.0,97,0.01,,,0.01,meteohub,2013-06-01 06:02:00,
2013-06-01 02:07:00,69.3,68.4,29.82,ENE,68,2.0,2.0,97,0.00,,,0.01,meteohub,2013-06-01 06:07:00,
2013-06-01 02:12:00,69.4,68.9,29.81,SSE,147,2.0,3.0,98,0.00,,,0.01,meteohub,2013-06-01 06:12:00,
2013-06-01 02:17:00,69.6,68.7,29.81,SE,134,2.0,4.0,97,0.00,,,0.01,meteohub,2013-06-01 06:17:00,
2013-06-01 02:22:00,69.8,68.9,29.81,East,100,2.0,5.0,97,0.00,,,0.01,meteohub,2013-06-01 06:22:00,
2013-06-01 02:32:00,70.0,68.7,29.81,SE,146,0.0,5.0,96,0.00,,,0.01,meteohub,2013-06-01 06:32:00,
2013-06-01 02:37:00,69.8,68.5,29.81,SE,131,1.0,3.0,96,0.00,,,0.01,meteohub,2013-06-01 06:37:00,
2013-06-01 02:42:00,69.6,68.4,29.81,ESE,120,1.0,2.0,96,0.01,,,0.02,meteohub,2013-06-01 06:42:00,
2013-06-01 02:47:00,69.6,68.4,29.81,SSE,158,0.0,2.0,96,0.01,,,0.02,meteohub,2013-06-01 06:47:00,
2013-06-01 02:52:00,69.4,68.2,29.81,SSE,167,0.0,2.0,96,0.01,,,0.02,meteohub,2013-06-01 06:52:00,
2013-06-01 02:57:00,69.4,68.2,29.81,SSE,167,0.0,2.0,96,0.01,,,0.02,meteohub,2013-06-01 06:57:00,
2013-06-01 03:02:00,69.3,68.0,29.81,SW,235,0.0,2.0,96,0.01,,,0.02,meteohub,2013-06-01 07:02:00,
2013-06-01 03:07:00,69.3,68.0,29.81,SW,214,0.0,1.0,96,0.01,,,0.02,meteohub,2013-06-01 07:07:00,
2013-06-01 03:12:00,69.1,67.8,29.81,SW,214,0.0,0.0,96,0.01,,,0.02,meteohub,2013-06-01 07:12:00,
2013-06-01 03:17:00,69.1,67.8,29.81,SSE,158,0.0,0.0,96,0.01,,,0.02,meteohub,2013-06-01 07:17:00,
2013-06-01 03:22:00,69.1,67.8,29.80,SSE,149,0.0,0.0,96,0.01,,,0.02,meteohub,2013-06-01 07:22:00,
2013-06-01 03:27:00,69.1,67.8,29.80,SW,231,0.0,0.0,96,0.01,,,0.02,meteohub,2013-06-01 07:27:00,
2013-06-01 06:12:00,68.5,66.4,29.76,SSE,160,0.0,0.0,93,0.01,,,0.04,meteohub,2013-06-01 10:12:00,
2013-06-01 06:17:00,68.5,66.4,29.76,SW,222,0.0,0.0,93,0.01,,,0.04,meteohub,2013-06-01 10:17:00,
2013-06-01 06:22:00,68.4,66.6,29.76,SW,226,0.0,0.0,94,0.01,,,0.04,meteohub,2013-06-01 10:22:00,
2013-06-01 06:27:00,68.4,66.6,29.77,SW,225,0.0,0.0,94,0.01,,,0.04,meteohub,2013-06-01 10:27:00,
2013-06-01 06:32:00,68.5,66.7,29.77,SW,225,0.0,0.0,94,0.01,,,0.04,meteohub,2013-06-01 10:32:00,
2013-06-01 06:37:00,68.5,66.7,29.77,SW,225,0.0,0.0,94,0.01,,,0.04,meteohub,2013-06-01 10:37:00,
2013-06-01 06:42:00,68.5,67.1,29.78,WSW,240,1.0,0.0,95,0.01,,,0.04,meteohub,2013-06-01 10:42:00,
2013-06-01 06:47:00,68.5,67.1,29.78,SW,226,0.0,2.0,95,0.01,,,0.04,meteohub,2013-06-01 10:47:00,
2013-06-01 06:52:00,68.5,67.1,29.79,West,260,4.0,4.0,95,0.01,,,0.04,meteohub,2013-06-01 10:52:00,
2013-06-01 06:57:00,68.5,67.1,29.79,SSW,212,3.0,4.0,95,0.01,,,0.04,meteohub,2013-06-01 10:57:00,
2013-06-01 07:02:00,68.5,67.1,29.79,SSW,208,4.0,4.0,95,0.00,,,0.04,meteohub,2013-06-01 11:02:00,
2013-06-01 07:07:00,69.1,67.3,29.80,SW,233,3.0,9.0,94,0.00,,,0.04,meteohub,2013-06-01 11:07:00,
2013-06-01 07:12:00,69.4,67.1,29.80,SW,215,1.0,9.0,92,0.00,,,0.04,meteohub,2013-06-01 11:12:00,
2013-06-01 07:17:00,69.4,67.1,29.80,WSW,256,4.0,9.0,92,0.00,,,0.04,meteohub,2013-06-01 11:17:00,
2013-06-01 07:22:00,69.3,66.9,29.81,West,274,5.0,8.0,92,0.00,,,0.04,meteohub,2013-06-01 11:22:00,
2013-06-01 07:27:00,69.3,66.9,29.81,West,281,1.0,6.0,92,0.00,,,0.04,meteohub,2013-06-01 11:27:00,
2013-06-01 07:32:00,69.1,66.4,29.81,WNW,298,4.0,6.0,91,0.00,,,0.04,meteohub,2013-06-01 11:32:00,
2013-06-01 07:37:00,68.7,66.4,29.81,WNW,295,2.0,6.0,92,0.00,,,0.04,meteohub,2013-06-01 11:37:00,
2013-06-01 07:42:00,68.7,66.4,29.81,WSW,257,2.0,5.0,92,0.00,,,0.04,meteohub,2013-06-01 11:42:00,
2013-06-01 07:47:00,68.7,66.4,29.81,WSW,242,1.0,5.0,92,0.00,,,0.04,meteohub,2013-06-01 11:47:00,
2013-06-01 07:52:00,68.5,65.8,29.81,West,277,2.0,3.0,91,0.00,,,0.04,meteohub,2013-06-01 11:52:00,
2013-06-01 07:57:00,68.4,65.7,29.81,West,263,3.0,4.0,91,0.00,,,0.04,meteohub,2013-06-01 11:57:00,
2013-06-01 08:02:00,68.2,65.5,29.80,WSW,258,3.0,4.0,91,0.00,,,0.04,meteohub,2013-06-01 12:02:00,
2013-06-01 08:07:00,68.2,65.5,29.80,West,273,3.0,4.0,91,0.00,,,0.04,meteohub,2013-06-01 12:07:00,
2013-06-01 08:12:00,68.2,65.1,29.81,West,263,3.0,4.0,90,0.00,,,0.04,meteohub,2013-06-01 12:12:00,
2013-06-01 08:17:00,68.2,65.5,29.80,WSW,245,2.0,4.0,91,0.00,,,0.04,meteohub,2013-06-01 12:17:00,
2013-06-01 08:22:00,68.2,65.5,29.80,West,259,2.0,4.0,91,0.00,,,0.04,meteohub,2013-06-01 12:22:00,
2013-06-01 08:27:00,68.2,65.5,29.80,WNW,287,3.0,4.0,91,0.01,,,0.05,meteohub,2013-06-01 12:27:00,
2013-06-01 08:32:00,68.2,65.5,29.80,SW,227,3.0,3.0,91,0.01,,,0.05,meteohub,2013-06-01 12:32:00,
2013-06-01 08:37:00,68.2,65.5,29.80,SW,222,1.0,3.0,91,0.01,,,0.05,meteohub,2013-06-01 12:37:00,
2013-06-01 08:42:00,68.4,65.7,29.80,SW,218,1.0,3.0,91,0.01,,,0.05,meteohub,2013-06-01 12:42:00,
2013-06-01 08:47:00,68.4,65.3,29.80,West,263,2.0,3.0,90,0.01,,,0.05,meteohub,2013-06-01 12:47:00,
2013-06-01 08:52:00,68.4,65.3,29.81,SSW,198,2.0,3.0,90,0.01,,,0.05,meteohub,2013-06-01 12:52:00,
2013-06-01 08:57:00,68.5,65.5,29.80,West,271,2.0,3.0,90,0.01,,,0.05,meteohub,2013-06-01 12:57:00,
2013-06-01 09:02:00,68.5,65.5,29.80,South,177,2.0,3.0,90,0.01,,,0.05,meteohub,2013-06-01 13:02:00,
2013-06-01 09:07:00,68.7,65.7,29.80,SE,141,3.0,3.0,90,0.01,,,0.05,meteohub,2013-06-01 13:07:00,
2013-06-01 09:12:00,68.7,65.7,29.79,East,95,1.0,3.0,90,0.01,,,0.05,meteohub,2013-06-01 13:12:00,
2013-06-01 09:17:00,69.1,66.0,29.79,SE,136,1.0,3.0,90,0.01,,,0.05,meteohub,2013-06-01 13:17:00,
2013-06-01 09:22:00,69.3,65.8,29.79,SE,129,1.0,3.0,89,0.00,,,0.05,meteohub,2013-06-01 13:22:00,
2013-06-01 09:27:00,69.3,66.2,29.78,South,181,2.0,4.0,90,0.00,,,0.05,meteohub,2013-06-01 13:27:00,
2013-06-01 09:32:00,69.3,66.2,29.79,SSW,205,1.0,4.0,90,0.00,,,0.05,meteohub,2013-06-01 13:32:00,
2013-06-01 09:37:00,69.3,66.2,29.79,SE,130,3.0,6.0,90,0.00,,,0.05,meteohub,2013-06-01 13:37:00,
2013-06-01 09:42:00,69.3,66.2,29.80,SSE,150,1.0,6.0,90,0.00,,,0.05,meteohub,2013-06-01 13:42:00,
2013-06-01 09:47:00,69.4,66.0,29.79,SE,141,1.0,6.0,89,0.00,,,0.05,meteohub,2013-06-01 13:47:00,
2013-06-01 09:52:00,69.6,66.2,29.79,SE,136,1.0,7.0,89,0.00,,,0.05,meteohub,2013-06-01 13:52:00,
2013-06-01 09:57:00,70.2,66.7,29.79,SSW,205,1.0,7.0,89,0.00,,,0.05,meteohub,2013-06-01 13:57:00,
2013-06-01 10:02:00,70.3,66.6,29.79,SSW,204,2.0,7.0,88,0.00,,,0.05,meteohub,2013-06-01 14:02:00,
2013-06-01 10:07:00,70.2,66.4,29.79,SE,145,1.0,7.0,88,0.00,,,0.05,meteohub,2013-06-01 14:07:00,
2013-06-01 10:12:00,70.5,66.4,29.79,SE,145,4.0,7.0,87,0.00,,,0.05,meteohub,2013-06-01 14:12:00,
2013-06-01 10:17:00,70.9,66.7,29.79,SE,144,1.0,7.0,87,0.00,,,0.05,meteohub,2013-06-01 14:17:00,
2013-06-01 10:22:00,70.7,66.4,29.79,ESE,122,1.0,6.0,86,0.00,,,0.05,meteohub,2013-06-01 14:22:00,
2013-06-01 10:27:00,70.9,66.7,29.79,East,96,1.0,6.0,87,0.00,,,0.05,meteohub,2013-06-01 14:27:00,
2013-06-01 10:32:00,71.1,66.7,29.79,ENE,61,0.0,6.0,86,0.00,,,0.05,meteohub,2013-06-01 14:32:00,
2013-06-01 10:37:00,71.4,67.3,29.79,WNW,287,1.0,6.0,87,0.00,,,0.05,meteohub,2013-06-01 14:37:00,
2013-06-01 10:42:00,71.8,67.1,29.79,SSW,204,0.0,3.0,85,0.00,,,0.05,meteohub,2013-06-01 14:42:00,
2013-06-01 10:47:00,71.4,67.1,29.80,SSE,150,0.0,4.0,86,0.00,,,0.05,meteohub,2013-06-01 14:47:00,
2013-06-01 10:52:00,71.4,66.7,29.80,West,266,5.0,8.0,85,0.00,,,0.05,meteohub,2013-06-01 14:52:00,
2013-06-01 10:57:00,71.2,66.6,29.80,SE,141,4.0,8.0,85,0.00,,,0.05,meteohub,2013-06-01 14:57:00,
2013-06-01 11:02:00,71.4,67.1,29.79,East,100,1.0,8.0,86,0.00,,,0.05,meteohub,2013-06-01 15:02:00,
2013-06-01 11:07:00,71.6,67.1,29.79,SE,145,1.0,8.0,86,0.00,,,0.05,meteohub,2013-06-01 15:07:00,
2013-06-01 11:12:00,71.8,67.3,29.79,ESE,117,0.0,5.0,86,0.01,,,0.06,meteohub,2013-06-01 15:12:00,
2013-06-01 11:17:00,71.8,67.1,29.80,WSW,253,2.0,4.0,85,0.01,,,0.06,meteohub,2013-06-01 15:17:00,
2013-06-01 11:22:00,71.6,67.5,29.80,North,4,1.0,4.0,87,0.01,,,0.06,meteohub,2013-06-01 15:22:00,
2013-06-01 11:27:00,72.0,67.8,29.80,North,5,1.0,4.0,87,0.01,,,0.06,meteohub,2013-06-01 15:27:00,
2013-06-01 11:32:00,72.1,67.6,29.81,South,190,0.0,4.0,86,0.01,,,0.06,meteohub,2013-06-01 15:32:00,
2013-06-01 11:37:00,72.3,68.2,29.81,SSE,148,5.0,6.0,87,0.01,,,0.06,meteohub,2013-06-01 15:37:00,
2013-06-01 11:42:00,72.1,67.5,29.80,ESE,112,1.0,8.0,85,0.01,,,0.06,meteohub,2013-06-01 15:42:00,
2013-06-01 11:47:00,72.3,67.6,29.81,WSW,253,2.0,10.0,85,0.01,,,0.06,meteohub,2013-06-01 15:47:00,
2013-06-01 11:52:00,72.5,68.0,29.80,SE,143,0.0,10.0,86,0.01,,,0.06,meteohub,2013-06-01 15:52:00,
2013-06-01 11:57:00,72.9,68.0,29.79,WNW,298,5.0,8.0,85,0.01,,,0.06,meteohub,2013-06-01 15:57:00,
2013-06-01 12:02:00,72.9,68.0,29.80,SW,219,2.0,9.0,85,0.01,,,0.06,meteohub,2013-06-01 16:02:00,
2013-06-01 12:07:00,72.7,67.6,29.80,SSE,155,4.0,12.0,84,0.00,,,0.06,meteohub,2013-06-01 16:07:00,
2013-06-01 12:12:00,72.7,67.8,29.80,SSE,147,4.0,12.0,85,0.00,,,0.06,meteohub,2013-06-01 16:12:00,
2013-06-01 12:17:00,72.9,68.0,29.80,WSW,239,4.0,12.0,85,0.00,,,0.06,meteohub,2013-06-01 16:17:00,
2013-06-01 12:22:00,73.2,68.4,29.79,South,191,3.0,10.0,85,0.00,,,0.06,meteohub,2013-06-01 16:22:00,
2013-06-01 12:27:00,73.6,68.2,29.80,SSW,210,10.0,10.0,83,0.00,,,0.06,meteohub,2013-06-01 16:27:00,
2013-06-01 12:32:00,73.8,68.5,29.80,SSE,147,6.0,13.0,84,0.00,,,0.06,meteohub,2013-06-01 16:32:00,
2013-06-01 12:37:00,74.1,68.2,29.79,WNW,288,1.0,13.0,82,0.00,,,0.06,meteohub,2013-06-01 16:37:00,
2013-06-01 12:42:00,74.3,68.4,29.79,SW,217,0.0,13.0,82,0.00,,,0.06,meteohub,2013-06-01 16:42:00,
2013-06-01 12:47:00,73.9,68.2,29.79,NNW,336,2.0,16.0,82,0.00,,,0.06,meteohub,2013-06-01 16:47:00,
2013-06-01 12:52:00,73.8,68.0,29.79,West,268,2.0,16.0,82,0.00,,,0.06,meteohub,2013-06-01 16:52:00,
2013-06-01 12:57:00,73.8,68.0,29.79,South,172,4.0,16.0,82,0.00,,,0.06,meteohub,2013-06-01 16:57:00,
2013-06-01 13:02:00,73.9,68.2,29.80,West,262,3.0,13.0,82,0.00,,,0.06,meteohub,2013-06-01 17:02:00,
2013-06-01 13:07:00,74.7,68.7,29.79,SSE,148,5.0,13.0,82,0.00,,,0.06,meteohub,2013-06-01 17:07:00,
2013-06-01 13:12:00,74.8,67.5,29.79,WSW,249,10.0,13.0,78,0.00,,,0.06,meteohub,2013-06-01 17:12:00,
2013-06-01 13:17:00,74.8,67.8,29.79,WSW,248,5.0,13.0,79,0.00,,,0.06,meteohub,2013-06-01 17:17:00,
2013-06-01 13:22:00,74.8,67.1,29.78,SSE,155,2.0,13.0,77,0.00,,,0.06,meteohub,2013-06-01 17:22:00,
2013-06-01 13:27:00,75.4,68.4,29.78,West,278,7.0,14.0,79,0.00,,,0.06,meteohub,2013-06-01 17:27:00,
2013-06-01 13:32:00,75.7,68.4,29.78,West,269,0.0,14.0,78,0.00,,,0.06,meteohub,2013-06-01 17:32:00,
2013-06-01 13:37:00,76.1,67.6,29.78,South,183,7.0,14.0,75,0.00,,,0.06,meteohub,2013-06-01 17:37:00,
2013-06-01 13:42:00,76.5,67.6,29.78,SSW,203,3.0,14.0,74,0.00,,,0.06,meteohub,2013-06-01 17:42:00,
2013-06-01 13:47:00,76.8,66.7,29.78,WSW,239,9.0,16.0,71,0.00,,,0.06,meteohub,2013-06-01 17:47:00,
2013-06-01 13:52:00,76.6,67.3,29.77,NW,304,10.0,17.0,73,0.01,,,0.07,meteohub,2013-06-01 17:52:00,
2013-06-01 13:57:00,76.8,67.5,29.77,NW,316,1.0,17.0,73,0.01,,,0.07,meteohub,2013-06-01 17:57:00,
2013-06-01 14:02:00,77.0,67.3,29.77,WSW,238,3.0,17.0,72,0.01,,,0.07,meteohub,2013-06-01 18:02:00,
2013-06-01 14:07:00,77.5,66.9,29.77,SSE,165,2.0,14.0,70,0.01,,,0.07,meteohub,2013-06-01 18:07:00,
2013-06-01 14:12:00,77.4,67.6,29.77,SSW,206,5.0,15.0,72,0.01,,,0.07,meteohub,2013-06-01 18:12:00,
2013-06-01 14:17:00,77.2,67.1,29.77,SSW,195,10.0,15.0,71,0.01,,,0.07,meteohub,2013-06-01 18:17:00,
2013-06-01 14:22:00,76.8,66.7,29.77,WSW,238,6.0,15.0,71,0.01,,,0.07,meteohub,2013-06-01 18:22:00,
2013-06-01 14:27:00,77.2,68.2,29.77,WSW,248,9.0,15.0,74,0.01,,,0.07,meteohub,2013-06-01 18:27:00,
2013-06-01 14:32:00,77.4,68.4,29.77,NW,311,3.0,15.0,74,0.01,,,0.07,meteohub,2013-06-01 18:32:00,
2013-06-01 14:37:00,77.7,68.0,29.77,SSE,167,3.0,11.0,72,0.01,,,0.07,meteohub,2013-06-01 18:37:00,
2013-06-01 14:42:00,77.7,67.6,29.77,SW,224,3.0,14.0,71,0.01,,,0.07,meteohub,2013-06-01 18:42:00,
2013-06-01 14:47:00,78.1,69.1,29.76,SE,144,6.0,14.0,74,0.00,,,0.07,meteohub,2013-06-01 18:47:00,
2013-06-01 14:52:00,78.6,69.6,29.76,SW,224,5.0,14.0,74,0.00,,,0.07,meteohub,2013-06-01 18:52:00,
2013-06-01 14:57:00,78.6,68.4,29.76,WNW,293,2.0,11.0,71,0.00,,,0.07,meteohub,2013-06-01 18:57:00,
2013-06-01 15:02:00,79.2,68.9,29.75,NW,326,3.0,11.0,71,0.00,,,0.07,meteohub,2013-06-01 19:02:00,
2013-06-01 15:07:00,79.3,68.4,29.75,WSW,246,6.0,11.0,69,0.00,,,0.07,meteohub,2013-06-01 19:07:00,
2013-06-01 15:12:00,78.8,67.8,29.75,South,186,6.0,18.0,69,0.00,,,0.07,meteohub,2013-06-01 19:12:00,
2013-06-01 15:17:00,79.0,68.4,29.75,WSW,248,12.0,18.0,70,0.00,,,0.07,meteohub,2013-06-01 19:17:00,
2013-06-01 15:22:00,79.7,69.1,29.75,SE,143,3.0,18.0,70,0.00,,,0.07,meteohub,2013-06-01 19:22:00,
2013-06-01 15:27:00,79.9,68.7,29.74,NNW,328,4.0,13.0,69,0.00,,,0.07,meteohub,2013-06-01 19:27:00,
2013-06-01 15:32:00,81.0,69.8,29.74,ESE,121,3.0,13.0,69,0.00,,,0.07,meteohub,2013-06-01 19:32:00,
2013-06-01 15:37:00,81.0,68.9,29.74,SSE,152,3.0,15.0,67,0.00,,,0.07,meteohub,2013-06-01 19:37:00,
2013-06-01 15:42:00,80.6,68.5,29.74,WSW,245,1.0,15.0,67,0.00,,,0.07,meteohub,2013-06-01 19:42:00,
2013-06-01 15:47:00,80.8,69.3,29.74,SSE,167,2.0,15.0,68,0.00,,,0.07,meteohub,2013-06-01 19:47:00,
2013-06-01 15:52:00,80.8,68.4,29.74,SE,146,2.0,14.0,66,0.00,,,0.07,meteohub,2013-06-01 19:52:00,
2013-06-01 15:57:00,80.1,68.9,29.73,NNE,23,7.0,17.0,69,0.00,,,0.07,meteohub,2013-06-01 19:57:00,
2013-06-01 16:02:00,80.1,68.9,29.74,East,86,5.0,17.0,69,0.00,,,0.07,meteohub,2013-06-01 20:02:00,
2013-06-01 16:07:00,79.9,68.4,29.73,SW,224,10.0,17.0,68,0.00,,,0.07,meteohub,2013-06-01 20:07:00,
2013-06-01 16:12:00,79.9,68.7,29.73,West,273,1.0,17.0,69,0.00,,,0.07,meteohub,2013-06-01 20:12:00,
2013-06-01 16:17:00,80.1,68.5,29.73,NNW,337,4.0,17.0,68,0.00,,,0.07,meteohub,2013-06-01 20:17:00,
2013-06-01 16:22:00,79.9,68.7,29.73,SSW,206,4.0,15.0,69,0.00,,,0.07,meteohub,2013-06-01 20:22:00,
2013-06-01 16:27:00,79.3,68.7,29.73,West,278,1.0,14.0,70,0.00,,,0.07,meteohub,2013-06-01 20:27:00,
2013-06-01 16:32:00,79.2,68.5,29.72,South,181,4.0,14.0,70,0.00,,,0.07,meteohub,2013-06-01 20:32:00,
2013-06-01 16:37:00,79.2,68.9,29.72,WNW,285,3.0,17.0,71,0.00,,,0.07,meteohub,2013-06-01 20:37:00,
2013-06-01 16:42:00,79.0,68.7,29.72,SSW,197,4.0,17.0,71,0.00,,,0.07,meteohub,2013-06-01 20:42:00,
2013-06-01 16:47:00,79.3,69.4,29.72,NE,50,0.0,13.0,72,0.00,,,0.07,meteohub,2013-06-01 20:47:00,
2013-06-01 16:52:00,79.9,69.3,29.71,SE,141,9.0,10.0,70,0.00,,,0.07,meteohub,2013-06-01 20:52:00,
2013-06-01 16:57:00,79.7,69.1,29.71,East,98,2.0,13.0,70,0.00,,,0.07,meteohub,2013-06-01 20:57:00,
2013-06-01 17:02:00,79.9,69.6,29.71,SSE,165,1.0,13.0,71,0.01,,,0.08,meteohub,2013-06-01 21:02:00,
2013-06-01 17:07:00,79.7,69.4,29.71,SSE,163,5.0,13.0,71,0.01,,,0.08,meteohub,2013-06-01 21:07:00,
2013-06-01 17:12:00,79.3,69.1,29.71,WSW,240,1.0,8.0,71,0.01,,,0.08,meteohub,2013-06-01 21:12:00,
2013-06-01 17:17:00,79.2,69.3,29.71,West,260,3.0,8.0,72,0.01,,,0.08,meteohub,2013-06-01 21:17:00,
2013-06-01 17:22:00,78.6,69.3,29.71,SW,219,0.0,14.0,73,0.01,,,0.08,meteohub,2013-06-01 21:22:00,
2013-06-01 17:27:00,78.3,69.3,29.70,South,179,4.0,14.0,74,0.01,,,0.08,meteohub,2013-06-01 21:27:00,
2013-06-01 17:32:00,78.3,69.3,29.70,SSE,156,2.0,14.0,74,0.01,,,0.08,meteohub,2013-06-01 21:32:00,
2013-06-01 17:37:00,78.4,69.4,29.70,ESE,121,2.0,13.0,74,0.01,,,0.08,meteohub,2013-06-01 21:37:00,
2013-06-01 17:42:00,78.6,69.3,29.70,SSW,193,7.0,10.0,73,0.01,,,0.08,meteohub,2013-06-01 21:42:00,
2013-06-01 17:47:00,78.8,69.4,29.70,SW,224,5.0,9.0,73,0.01,,,0.08,meteohub,2013-06-01 21:47:00,
2013-06-01 17:52:00,78.6,69.6,29.69,ESE,110,3.0,10.0,74,0.01,,,0.08,meteohub,2013-06-01 21:52:00,
2013-06-01 17:57:00,78.6,69.3,29.69,South,188,4.0,12.0,73,0.00,,,0.08,meteohub,2013-06-01 21:57:00,
2013-06-01 18:02:00,78.6,69.6,29.69,NNW,338,2.0,12.0,74,0.00,,,0.08,meteohub,2013-06-01 22:02:00,
2013-06-01 18:07:00,78.3,69.3,29.68,West,269,1.0,8.0,74,0.00,,,0.08,meteohub,2013-06-01 22:07:00,
2013-06-01 18:12:00,77.9,68.9,29.68,SSW,210,1.0,8.0,74,0.00,,,0.08,meteohub,2013-06-01 22:12:00,
2013-06-01 18:17:00,77.5,69.8,29.68,NE,54,3.0,7.0,77,0.00,,,0.08,meteohub,2013-06-01 22:17:00,
2013-06-01 18:22:00,77.2,69.4,29.67,NE,46,2.0,6.0,77,0.00,,,0.08,meteohub,2013-06-01 22:22:00,
2013-06-01 18:27:00,76.5,69.4,29.67,East,91,0.0,8.0,79,0.00,,,0.08,meteohub,2013-06-01 22:27:00,
2013-06-01 18:32:00,75.7,69.4,29.67,SW,217,2.0,8.0,81,0.00,,,0.08,meteohub,2013-06-01 22:32:00,
2013-06-01 18:37:00,75.2,69.3,29.67,SSW,212,0.0,8.0,82,0.00,,,0.08,meteohub,2013-06-01 22:37:00,
2013-06-01 18:42:00,74.8,69.6,29.67,SE,130,1.0,7.0,84,0.00,,,0.08,meteohub,2013-06-01 22:42:00,
2013-06-01 18:47:00,74.8,69.6,29.68,ESE,120,4.0,7.0,84,0.00,,,0.08,meteohub,2013-06-01 22:47:00,
2013-06-01 18:52:00,74.8,70.0,29.68,SE,139,1.0,5.0,85,0.00,,,0.08,meteohub,2013-06-01 22:52:00,
2013-06-01 18:57:00,74.8,70.0,29.68,ESE,119,1.0,5.0,85,0.00,,,0.08,meteohub,2013-06-01 22:57:00,
2013-06-01 19:02:00,74.8,69.6,29.68,ESE,113,0.0,5.0,84,0.00,,,0.08,meteohub,2013-06-01 23:02:00,
2013-06-01 19:07:00,74.8,70.0,29.68,ESE,108,1.0,3.0,85,0.00,,,0.08,meteohub,2013-06-01 23:07:00,
2013-06-01 19:12:00,74.8,70.0,29.67,ESE,115,2.0,2.0,85,0.00,,,0.08,meteohub,2013-06-01 23:12:00,
2013-06-01 19:17:00,74.8,70.0,29.68,NW,309,0.0,2.0,85,0.00,,,0.08,meteohub,2013-06-01 23:17:00,
2013-06-01 19:22:00,74.8,70.0,29.67,SE,138,1.0,2.0,85,0.00,,,0.08,meteohub,2013-06-01 23:22:00,
2013-06-01 19:27:00,75.2,70.3,29.67,West,260,0.0,2.0,85,0.00,,,0.08,meteohub,2013-06-01 23:27:00,
2013-06-01 19:32:00,75.7,70.5,29.67,West,266,0.0,3.0,84,0.00,,,0.08,meteohub,2013-06-01 23:32:00,
2013-06-01 19:37:00,75.9,70.3,29.67,East,98,0.0,4.0,83,0.00,,,0.08,meteohub,2013-06-01 23:37:00,
2013-06-01 19:42:00,76.1,70.5,29.67,NW,322,0.0,4.0,83,0.00,,,0.08,meteohub,2013-06-01 23:42:00,
2013-06-01 19:47:00,75.9,70.0,29.68,NNW,327,0.0,6.0,82,0.00,,,0.08,meteohub,2013-06-01 23:47:00,
2013-06-01 19:52:00,75.7,70.2,29.68,ESE,120,1.0,6.0,83,0.00,,,0.08,meteohub,2013-06-01 23:52:00,
2013-06-01 19:57:00,75.6,70.0,29.68,SW,229,1.0,6.0,83,0.00,,,0.08,meteohub,2013-06-01 23:57:00,
2013-06-01 20:02:00,75.6,70.3,29.68,SSE,152,1.0,4.0,84,0.00,,,0.08,meteohub,2013-06-02 00:02:00,
2013-06-01 20:07:00,75.4,70.2,29.69,SSE,160,1.0,4.0,84,0.00,,,0.08,meteohub,2013-06-02 00:07:00,
2013-06-01 20:12:00,75.0,70.2,29.69,SE,145,2.0,4.0,85,0.00,,,0.08,meteohub,2013-06-02 00:12:00,
2013-06-01 20:17:00,75.0,70.2,29.69,SE,143,2.0,3.0,85,0.00,,,0.08,meteohub,2013-06-02 00:17:00,
2013-06-01 20:22:00,74.8,70.0,29.68,SE,134,1.0,3.0,85,0.00,,,0.08,meteohub,2013-06-02 00:22:00,
2013-06-01 20:27:00,74.8,70.0,29.69,SE,125,1.0,3.0,85,0.00,,,0.08,meteohub,2013-06-02 00:27:00,
2013-06-01 20:32:00,75.0,70.5,29.69,SE,125,0.0,2.0,86,0.00,,,0.08,meteohub,2013-06-02 00:32:00,
2013-06-01 20:37:00,75.0,70.5,29.70,East,98,1.0,2.0,86,0.00,,,0.08,meteohub,2013-06-02 00:37:00,
2013-06-01 20:42:00,75.0,70.2,29.70,East,96,0.0,1.0,85,0.00,,,0.08,meteohub,2013-06-02 00:42:00,
2013-06-01 20:47:00,74.8,70.3,29.69,SE,145,1.0,2.0,86,0.00,,,0.08,meteohub,2013-06-02 00:47:00,
2013-06-01 20:52:00,74.8,70.3,29.68,SE,134,2.0,3.0,86,0.00,,,0.08,meteohub,2013-06-02 00:52:00,
2013-06-01 20:57:00,74.7,70.2,29.68,SSE,158,0.0,3.0,86,0.00,,,0.08,meteohub,2013-06-02 00:57:00,
2013-06-01 21:02:00,74.7,70.2,29.68,SSE,160,0.0,3.0,86,0.00,,,0.08,meteohub,2013-06-02 01:02:00,
2013-06-01 21:07:00,74.1,70.0,29.68,South,184,0.0,3.0,87,0.00,,,0.08,meteohub,2013-06-02 01:07:00,
2013-06-01 21:12:00,73.8,70.0,29.68,SSW,205,0.0,3.0,88,0.00,,,0.08,meteohub,2013-06-02 01:12:00,
2013-06-01 21:17:00,73.2,69.8,29.67,SSE,150,0.0,3.0,89,0.00,,,0.08,meteohub,2013-06-02 01:17:00,
2013-06-01 21:22:00,72.9,69.4,29.67,SSE,152,0.0,3.0,89,0.00,,,0.08,meteohub,2013-06-02 01:22:00,
2013-06-01 21:27:00,72.7,69.6,29.67,SSE,153,0.0,2.0,90,0.00,,,0.08,meteohub,2013-06-02 01:27:00,
2013-06-01 21:32:00,72.3,69.3,29.68,SSE,158,2.0,2.0,90,0.00,,,0.08,meteohub,2013-06-02 01:32:00,
2013-06-01 21:37:00,72.1,69.1,29.68,SSE,148,0.0,4.0,90,0.00,,,0.08,meteohub,2013-06-02 01:37:00,
2013-06-01 21:42:00,72.1,69.1,29.68,SSE,158,2.0,4.0,90,0.00,,,0.08,meteohub,2013-06-02 01:42:00,
2013-06-01 21:47:00,72.0,68.9,29.68,SSE,155,0.0,4.0,90,0.00,,,0.08,meteohub,2013-06-02 01:47:00,
2013-06-01 21:52:00,72.0,69.3,29.68,SSW,193,0.0,3.0,91,0.00,,,0.08,meteohub,2013-06-02 01:52:00,
2013-06-01 21:57:00,71.8,69.1,29.68,SE,146,0.0,3.0,91,0.00,,,0.08,meteohub,2013-06-02 01:57:00,
2013-06-01 22:02:00,71.4,68.7,29.68,SSE,155,2.0,2.0,91,0.00,,,0.08,meteohub,2013-06-02 02:02:00,
2013-06-01 22:07:00,71.2,68.5,29.68,SSW,205,3.0,3.0,91,0.00,,,0.08,meteohub,2013-06-02 02:07:00,
2013-06-01 22:12:00,71.4,68.7,29.69,SE,145,1.0,3.0,91,0.00,,,0.08,meteohub,2013-06-02 02:12:00,
2013-06-01 22:17:00,71.2,68.5,29.69,SSW,194,1.0,4.0,91,0.00,,,0.08,meteohub,2013-06-02 02:17:00,
2013-06-01 22:22:00,71.2,68.5,29.69,SSE,149,2.0,4.0,91,0.00,,,0.08,meteohub,2013-06-02 02:22:00,
2013-06-01 22:27:00,71.1,68.4,29.70,SSE,155,0.0,3.0,91,0.00,,,0.08,meteohub,2013-06-02 02:27:00,
2013-06-01 22:32:00,70.9,68.2,29.70,SSE,162,3.0,4.0,91,0.00,,,0.08,meteohub,2013-06-02 02:32:00,
2013-06-01 22:37:00,70.7,68.0,29.70,SSE,160,0.0,4.0,91,0.00,,,0.08,meteohub,2013-06-02 02:37:00,
2013-06-01 22:42:00,70.5,68.0,29.70,SSE,148,1.0,4.0,92,0.00,,,0.08,meteohub,2013-06-02 02:42:00,
2013-06-01 22:47:00,70.5,68.0,29.70,SE,141,1.0,3.0,92,0.00,,,0.08,meteohub,2013-06-02 02:47:00,
2013-06-01 22:52:00,70.3,67.8,29.70,South,172,0.0,2.0,92,0.00,,,0.08,meteohub,2013-06-02 02:52:00,
2013-06-01 22:57:00,70.3,67.8,29.70,South,186,0.0,2.0,92,0.00,,,0.08,meteohub,2013-06-02 02:57:00,
2013-06-01 23:02:00,70.3,67.8,29.70,North,3,1.0,2.0,92,0.00,,,0.08,meteohub,2013-06-02 03:02:00,
2013-06-01 23:07:00,70.3,67.6,29.70,SE,132,0.0,4.0,91,0.00,,,0.08,meteohub,2013-06-02 03:07:00,
2013-06-01 23:12:00,70.3,67.6,29.70,SE,145,0.0,4.0,91,0.00,,,0.08,meteohub,2013-06-02 03:12:00,
2013-06-01 23:17:00,70.2,67.5,29.70,NNW,329,4.0,4.0,91,0.00,,,0.08,meteohub,2013-06-02 03:17:00,
2013-06-01 23:22:00,70.2,67.5,29.71,WSW,240,0.0,4.0,91,0.00,,,0.08,meteohub,2013-06-02 03:22:00,
2013-06-01 23:27:00,70.0,67.3,29.71,WSW,239,0.0,4.0,91,0.00,,,0.08,meteohub,2013-06-02 03:27:00,
2013-06-01 23:32:00,69.8,67.1,29.71,North,0,0.0,4.0,91,0.00,,,0.08,meteohub,2013-06-02 03:32:00,
2013-06-01 23:37:00,69.8,67.3,29.71,West,269,1.0,4.0,92,0.00,,,0.08,meteohub,2013-06-02 03:37:00,
2013-06-01 23:42:00,69.8,67.1,29.71,SW,235,1.0,4.0,91,0.00,,,0.08,meteohub,2013-06-02 03:42:00,
2013-06-01 23:47:00,70.0,67.3,29.71,SW,214,0.0,4.0,91,0.00,,,0.08,meteohub,2013-06-02 03:47:00,
2013-06-01 23:52:00,70.0,66.9,29.71,ESE,109,0.0,4.0,90,0.00,,,0.08,meteohub,2013-06-02 03:52:00,
2013-06-01 23:57:00,69.8,66.7,29.71,NE,47,0.0,3.0,90,0.00,,,0.08,meteohub,2013-06-02 03:57:00,